Вернуться в каталог

DELTA 1 DEB

АктивенPO
NORAD 8956·DEBRIS·🇺🇸 United States

Запущен Jan 22, 1975 с Vandenberg Space Force Base

Loading…

Ближайшие Пролёты (ближайшие 24 часа)

TLE

СвежийSource: Space-Track

Эпоха: Sep 14, 2026, 00:18 UTC

1 08956U 75004AN  26257.01306399  .00001395  00000-0  16181-3 0  9995
2 08956  98.3691  88.3145 0023136 352.6587   7.4285 14.87032731675174

Отслеживайте DELTA 1 DEB в реальном времени с AllMySat

Download on the App Store